CDT,Max TemperatureF,Mean TemperatureF,Min TemperatureF,Max Dew PointF,MeanDew PointF,Min DewpointF,Max Humidity, Mean Humidity, Min Humidity, Max Sea Level PressureIn, Mean Sea Level PressureIn, Min Sea Level PressureIn, Max VisibilityMiles, Mean VisibilityMiles, Min VisibilityMiles, Max Wind SpeedMPH, Mean Wind SpeedMPH, Max Gust SpeedMPH,PrecipitationIn, CloudCover, Events, WindDirDegrees
2013-9-1,78,69,60,68,62,57,100,74,50,29.96,29.86,29.79,10,9,1,22,7,29,0.00,3,,317
2013-9-2,68,60,51,57,53,48,94,77,56,30.08,30.04,29.96,10,10,10,16,8,22,0.00,2,,349
2013-9-3,75,60,44,57,51,43,100,73,44,30.13,30.08,30.05,10,10,3,9,3,15,0.00,0,,228
2013-9-4,86,70,55,66,59,52,88,67,43,30.15,30.11,30.07,10,10,2,12,4,16,0.00,0,,216
2013-9-5,82,74,66,70,66,63,94,79,65,30.22,30.18,30.14,10,10,9,10,5,16,0.00,0,,97
2013-9-6,86,74,62,64,62,59,94,68,40,30.16,30.08,29.95,10,10,9,18,10,25,0.00,0,,165
2013-9-7,87,76,64,72,66,59,89,72,55,29.97,29.93,29.90,10,10,6,12,6,16,0.03,1,Rain,127
2013-9-8,75,72,68,68,65,63,94,81,69,30.04,29.97,29.91,10,9,4,16,11,23,0.00,5,,90
2013-9-9,95,82,68,72,66,61,100,70,34,29.91,29.82,29.76,10,7,0,20,11,26,0.00,3,Fog,173
2013-9-10,87,76,66,68,63,61,88,63,46,30.03,29.94,29.84,10,10,10,14,8,21,0.00,1,,248
2013-9-11,84,74,64,66,61,55,88,68,42,30.09,30.07,30.03,10,10,10,15,5,18,0.00,3,,268
2013-9-12,73,63,53,57,49,46,82,61,38,30.21,30.15,30.06,10,10,10,22,10,30,0.00,1,,337
2013-9-13,68,56,44,46,43,39,93,64,37,30.28,30.21,30.14,10,10,10,8,5,13,0.00,0,,62
2013-9-14,73,58,44,50,43,41,87,57,33,30.14,30.05,29.90,10,10,5,17,9,22,0.01,2,Rain,170
2013-9-15,64,58,53,55,54,52,100,84,64,30.27,30.04,29.87,10,9,1,16,10,22,0.65,7,Rain,39
2013-9-16,68,57,46,52,48,43,100,78,46,30.39,30.33,30.27,10,10,10,9,6,13,0.00,2,,74
2013-9-17,62,56,50,61,52,45,94,88,76,30.30,30.16,30.01,10,7,1,15,10,18,0.04,4,Rain,137
2013-9-18,84,73,62,72,65,61,100,85,62,30.02,29.87,29.78,10,5,0,15,12,23,0.00,6,Fog-Rain,164
2013-9-19,82,74,66,70,67,63,94,80,58,29.85,29.78,29.71,10,9,5,18,11,28,0.11,3,Rain,213
2013-9-20,66,58,50,63,51,46,88,79,59,29.96,29.90,29.83,10,10,9,22,11,28,0.00,5,,292
2013-9-21,66,54,42,48,46,41,100,76,49,30.01,29.96,29.92,10,10,10,13,7,20,0.00,0,,324
2013-9-22,73,60,46,54,49,45,93,72,47,30.01,29.97,29.92,10,10,10,15,8,22,0.00,0,,134
2013-9-23,73,62,50,52,48,46,87,67,41,30.02,29.97,29.92,10,10,9,20,12,26,0.00,0,,137
2013-9-24,73,60,48,54,50,46,93,71,44,29.96,29.94,29.91,10,10,9,15,10,21,0.00,0,,103
2013-9-25,73,60,48,55,50,46,94,72,46,30.00,29.95,29.90,10,9,4,13,7,17,0.00,0,,99
2013-9-26,82,68,53,59,55,50,88,67,45,29.98,29.95,29.91,10,10,7,21,12,29,0.00,1,Rain,139
2013-9-27,82,71,60,63,58,55,88,66,45,30.02,29.97,29.91,10,10,10,24,14,34,0.00,0,,149
2013-9-28,68,58,48,64,55,46,94,81,68,30.02,29.88,29.79,10,9,2,23,13,37,0.14,4,Rain,204
2013-9-29,73,58,42,48,44,41,100,67,33,30.06,30.00,29.93,10,10,10,18,6,25,0.00,0,,185
2013-9-30,75,63,51,50,47,45,82,61,34,29.94,29.83,29.72,10,10,9,26,13,34,0.00,0,,178